CAPE
0 0 0 0 0 0 0 0 0 0 0 0 0 0 0 0 0 0 0 0 0 0 0 0 0 0 0 0 0 13 68 167 91 24 40 33 34 22 35 34 35 0 0 0
0 0 0 0 0 0 0 0 0 0 0 0 0 0 0 0 0 0 0 0 0 0 0 0 0 0 0 0 0 0 1 45 155 17 22 23 23 25 27 13 1 4 0 0
0 0 0 0 0 0 0 0 0 0 0 0 0 0 0 0 0 0 0 0 0 0 0 0 0 0 0 0 0 0 0 0 13 65 3 4 1 0 25 37 40 9 4 0
0 0 0 0 0 0 0 0 0 0 0 0 0 0 0 0 0 0 0 0 0 0 0 0 0 0 0 0 0 0 0 0 0 0 13 4 7 4 4 17 48 17 11 9
0 0 0 0 0 0 0 0 0 0 0 0 0 0 0 0 0 0 0 0 0 0 0 0 0 0 0 0 0 0 0 0 0 0 0 8 5 6 12 9 16 19 23 20
0 0 0 0 0 0 0 0 0 0 0 0 0 0 0 0 0 0 0 0 0 0 0 0 0 0 0 0 0 0 0 0 0 0 0 1 4 2 0 0 0 0 0 0
0 0 0 0 0 0 0 0 0 0 0 0 0 0 0 0 0 0 0 0 0 0 0 0 0 0 0 0 0 0 0 0 0 0 0 0 0 0 1 0 0 1 1 4
0 0 0 0 0 0 0 0 0 0 0 0 0 0 0 0 0 0 0 0 0 0 0 0 0 0 0 0 0 0 0 0 0 0 0 0 0 0 0 0 0 0 0 0
0 0 0 0 0 0 0 0 0 0 0 0 0 0 0 0 0 0 0 0 0 0 0 0 0 0 0 0 0 0 0 0 0 0 0 0 0 0 0 0 0 0 0 0
0 0 0 0 0 0 0 0 0 0 0 0 0 0 0 0 0 0 0 0 0 0 0 0 0 0 0 0 0 0 0 0 0 0 0 0 0 0 0 0 0 0 0 0
0 0 0 0 0 0 0 0 0 0 0 0 0 0 0 0 0 0 0 0 0 0 0 0 0 0 0 0 0 0 0 0 0 0 0 0 0 0 0 0 0 0 0 0
0 0 0 0 0 0 0 0 0 0 0 0 0 0 0 0 0 0 0 0 0 0 0 0 0 0 0 0 0 0 0 0 0 0 0 0 0 0 0 0 0 0 0 0
0 0 0 0 0 0 0 0 0 0 0 0 0 0 0 0 0 0 0 0 0 0 0 0 0 0 0 0 0 0 0 0 0 0 0 0 0 0 0 0 0 0 0 0
0 0 0 0 0 0 0 0 0 0 0 0 0 0 0 0 0 0 0 0 0 0 0 0 0 0 0 0 0 0 0 0 0 0 0 0 0 0 0 0 0 0 0 0
0 0 0 0 0 0 0 0 0 0 0 0 0 0 0 0 0 0 0 0 0 0 0 0 0 0 0 0 0 0 0 0 0 0 0 0 0 0 0 0 0 0 0 0
0 0 0 0 0 0 0 0 0 0 0 0 0 0 0 0 0 0 0 0 0 0 0 0 0 0 0 0 0 0 0 0 0 0 0 0 0 0 0 0 0 0 0 0
0 0 0 0 0 0 0 0 0 0 0 0 0 0 0 0 0 0 0 0 0 0 0 0 0 0 0 0 0 0 0 0 0 0 0 0 0 0 0 0 0 0 0 0
0 0 1 1 1 0 0 0 0 0 0 0 0 0 0 0 0 0 0 0 0 0 0 0 0 0 0 0 0 0 0 0 0 0 0 0 0 0 0 0 0 0 0 0
0 0 0 0 1 0 0 0 0 0 0 0 0 0 0 0 0 0 0 0 0 0 0 0 0 0 0 0 0 0 0 0 0 0 0 0 0 0 0 0 0 0 0 0
0 0 0 5 27 10 0 0 0 0 0 0 0 0 0 0 0 0 0 0 0 0 0 0 0 0 0 0 0 0 0 0 0 0 0 0 0 0 0 0 0 0 0 0
0 1 0 3 7 0 0 0 0 0 0 0 0 0 0 0 0 0 0 0 0 0 0 0 0 0 0 0 0 0 0 0 0 0 0 0 0 0 0 0 0 0 0 0
0 0 0 1 7 0 0 0 0 0 0 0 0 0 0 0 0 0 0 0 0 0 0 0 0 0 0 0 0 0 0 0 0 0 0 0 0 0 0 0 0 0 0 0
0 0 1 0 0 0 0 0 0 0 0 0 0 0 0 0 0 0 0 0 0 0 0 0 0 0 0 0 0 0 0 0 0 0 0 0 0 0 0 0 0 2 1 1
0 0 0 0 0 0 0 0 0 0 0 0 0 0 0 0 0 0 0 0 0 0 0 0 0 0 0 0 0 0 0 0 0 0 0 0 0 0 0 1 0 1 1 1
0 0 0 0 0 0 0 0 0 0 0 0 0 0 0 0 0 0 0 0 0 0 0 0 0 0 0 0 0 0 0 0 0 0 0 0 0 0 0 0 0 0 0 1
0 0 0 0 0 0 0 0 0 0 0 0 0 0 0 0 0 0 0 0 0 0 0 0 0 0 0 0 0 0 0 0 0 0 0 0 0 0 0 0 0 0 0 1
CIN
0 0 0 0 0 0 0 0 0 0 0 0 0 0 0 0 0 0 0 0 0 0 0 0 0 0 0 0 0 -351 -272 -174 -271 -357 -300 -292 -278 -267 -234 -225 -211 -4 0 0
0 0 0 0 0 0 0 0 0 0 0 0 0 0 0 0 0 0 0 0 0 0 0 0 0 0 0 0 0 0 -74 -278 -177 -367 -353 -339 -332 -325 -283 -272 -4 -2 -1 0
0 0 0 0 0 0 0 0 0 0 0 0 0 0 0 0 0 0 0 0 0 0 0 0 0 0 0 0 0 0 0 0 -134 -260 -9 -1 -1 -4 -333 -328 -282 -1 -4 -2
0 0 0 0 0 0 0 0 0 0 0 0 0 0 0 0 0 0 0 0 0 0 0 0 0 0 0 0 0 0 0 0 0 0 -142 -3 -2 -2 -3 -63 -300 -293 -8 -9
0 0 0 0 0 0 0 0 0 0 0 0 0 0 0 0 0 0 0 0 0 0 0 0 0 0 0 0 0 0 0 0 0 0 0 0 -1 -2 -8 -11 -5 -10 -9 -11
0 0 0 0 0 0 0 0 0 0 0 0 0 0 0 0 0 0 0 0 0 0 0 0 0 0 0 0 0 0 0 0 0 0 0 0 -1 -2 -11 -14 -6 0 -4 0
0 0 0 0 0 0 0 0 0 0 0 0 0 0 0 0 0 0 0 0 0 0 0 0 0 0 0 0 0 0 0 0 0 0 0 0 0 0 0 0 0 0 0 0
0 0 0 0 0 0 0 0 0 0 0 0 0 0 0 0 0 0 0 0 0 0 0 0 0 0 0 0 0 0 0 0 0 0 0 0 0 0 0 0 0 0 0 0
0 0 0 0 0 0 0 0 0 0 0 0 0 0 0 0 0 0 0 0 0 0 0 0 0 0 0 0 0 0 0 0 0 0 0 0 0 0 0 0 0 0 0 0
0 0 0 0 0 0 0 0 0 0 0 0 0 0 0 0 0 0 0 0 0 0 0 0 0 0 0 0 0 0 0 0 0 0 0 0 0 0 0 0 0 0 0 0
0 0 0 0 0 0 0 0 0 0 0 0 0 0 0 0 0 0 0 0 0 0 0 0 0 0 0 0 0 0 0 0 0 0 0 0 0 0 0 0 0 0 0 0
0 0 0 0 0 0 0 0 0 0 0 0 0 0 0 0 0 0 0 0 0 0 0 0 0 0 0 0 0 0 0 0 0 0 0 0 0 0 0 0 0 0 0 0
0 0 0 0 0 0 0 0 0 0 0 0 0 0 0 0 0 0 0 0 0 0 0 0 0 0 0 0 0 0 0 0 0 0 0 0 0 0 0 0 0 0 0 0
0 0 0 0 0 0 0 0 0 0 0 0 0 0 0 0 0 0 0 0 0 0 0 0 0 0 0 0 0 0 0 0 0 0 0 0 0 0 0 0 0 0 0 0
0 0 0 0 0 0 0 0 0 0 0 0 0 0 0 0 0 0 0 0 0 0 0 0 0 0 0 0 0 0 0 0 0 0 0 0 0 0 0 0 0 0 0 0
0 0 0 0 0 0 0 0 0 0 0 0 0 0 0 0 0 0 0 0 0 0 0 0 0 0 0 0 0 0 0 0 0 0 0 0 0 0 0 0 0 0 0 0
0 0 0 0 0 0 0 0 0 0 0 0 0 0 0 0 0 0 0 0 0 0 0 0 0 0 0 0 0 0 0 0 0 0 0 0 0 0 0 0 0 0 0 0
0 0 0 0 -1 0 0 0 0 0 0 0 0 0 0 0 0 0 0 0 0 0 0 0 0 0 0 0 0 0 0 0 0 0 0 0 0 0 0 0 0 0 0 0
0 0 0 0 0 0 0 0 0 0 0 0 0 0 0 0 0 0 0 0 0 0 0 0 0 0 0 0 0 0 0 0 0 0 0 0 0 0 0 0 0 0 0 0
0 0 0 0 0 -2 0 0 0 0 0 0 0 0 0 0 0 0 0 0 0 0 0 0 0 0 0 0 0 0 0 0 0 0 0 0 0 0 0 0 0 0 0 0
0 0 0 0 0 0 0 0 0 0 0 0 0 0 0 0 0 0 0 0 0 0 0 0 0 0 0 0 0 0 0 0 0 0 0 0 0 0 0 0 0 0 0 0
0 0 0 0 0 -1 0 0 0 0 0 0 0 0 0 0 0 0 0 0 0 0 0 0 0 0 0 0 0 0 0 0 0 0 0 0 0 0 0 0 0 0 0 0
0 0 0 0 -1 0 0 0 0 0 0 0 0 0 0 0 0 0 0 0 0 0 0 0 0 0 0 0 0 0 0 0 0 0 0 0 0 0 0 0 0 0 0 0
0 0 0 0 0 0 0 0 0 0 0 0 0 0 0 0 0 0 0 0 0 0 0 0 0 0 0 0 0 0 0 0 0 0 0 0 0 0 0 0 0 0 0 0
0 0 0 0 0 0 0 0 0 0 0 0 0 0 0 0 0 0 0 0 0 0 0 0 0 0 0 0 0 0 0 0 0 0 0 0 0 0 0 0 0 0 0 0
0 0 0 0 0 0 0 0 0 0 0 0 0 0 0 0 0 0 0 0 0 0 0 0 0 0 0 0 0 0 0 0 0 0 0 0 0 0 0 0 0 0 0 0
Wind_Speed
14 12 18 18 16 11 16 14 10 7 3 6 12 10 9 6 5 7 6 3 3 2 2 2 3 5 7 10 12 13 13 13 10 6 5 4 6 5 5 4 6 8 7 8
8 17 17 16 8 6 10 14 9 5 3 4 5 11 10 3 4 1 4 5 2 2 3 2 2 0 5 8 10 12 12 12 10 7 6 4 4 4 5 5 7 8 7 8
15 12 10 8 10 12 9 14 12 4 6 1 2 8 12 4 4 3 2 1 2 2 5 5 5 4 3 2 6 9 11 11 10 12 7 4 2 0 3 5 5 7 8 9
10 5 11 13 16 14 9 2 11 11 11 5 3 4 8 8 6 5 5 4 5 7 7 7 8 8 7 5 3 5 5 8 8 9 9 6 4 6 4 5 5 6 8 9
6 9 13 14 15 10 5 8 9 9 5 1 6 6 6 8 8 6 6 7 6 7 9 9 9 9 9 8 8 7 6 5 4 5 6 5 6 6 5 2 4 6 6 9
5 2 7 3 7 1 16 13 11 6 3 6 10 8 9 9 11 11 9 10 9 8 9 9 9 10 10 10 10 10 11 10 8 6 4 1 2 6 5 5 4 5 4 4
5 7 3 6 10 8 10 15 5 7 5 6 3 4 4 7 6 12 15 13 10 10 9 9 10 10 11 12 11 10 12 13 12 12 10 8 6 4 3 4 4 5 4 5
13 8 12 10 9 10 14 16 6 7 7 6 3 9 2 8 6 13 13 14 11 9 8 10 10 10 10 11 12 12 13 13 12 12 12 10 10 7 6 7 6 5 6 6
14 7 3 3 1 11 12 9 4 7 2 2 7 5 4 8 11 13 14 13 12 11 9 10 10 10 10 11 12 12 12 13 12 12 11 11 10 10 8 9 8 6 6 6
7 6 1 2 3 1 8 12 5 3 6 5 7 8 7 15 19 17 17 16 14 11 10 10 10 9 9 10 10 11 11 12 10 11 9 9 9 9 8 7 8 9 8 9
8 4 4 4 10 14 5 6 5 4 3 5 4 6 3 20 22 22 19 17 15 13 12 10 10 9 8 8 9 9 10 11 9 9 9 9 8 9 8 8 8 8 8 9
2 6 5 7 4 2 6 10 13 6 5 2 3 3 4 8 20 19 18 15 15 13 12 11 10 10 8 8 8 9 9 9 8 8 9 9 9 9 9 9 9 9 9 8
10 5 6 1 2 2 8 10 12 8 3 6 6 5 4 5 15 17 18 16 15 14 12 11 10 10 9 8 8 9 8 8 7 8 8 9 9 9 8 8 9 9 9 9
4 3 10 12 10 9 11 18 16 15 6 10 10 9 6 11 16 17 17 18 17 16 14 13 11 10 9 9 8 8 8 7 6 7 7 7 7 7 8 8 9 10 9 10
3 6 8 14 3 3 8 14 15 16 24 13 21 16 11 18 21 23 18 17 16 15 15 13 11 10 10 9 8 7 7 7 7 8 8 8 6 8 8 7 7 7 7 8
3 4 6 2 3 0 2 8 17 20 24 20 19 15 8 18 15 18 18 19 19 18 16 14 13 11 10 8 8 7 7 7 6 6 4 5 5 4 5 6 7 7 7 7
9 7 4 5 5 3 4 17 16 15 20 19 22 24 9 15 19 20 20 20 19 18 16 15 13 11 8 8 6 7 6 5 5 3 3 3 4 6 7 7 8 8 9 9
8 7 3 5 4 7 8 1 18 20 15 20 20 13 14 18 21 20 16 19 18 18 15 13 11 11 9 8 7 5 4 4 3 2 2 3 6 6 7 8 8 8 9 10
3 6 5 6 8 8 9 7 9 11 17 18 20 15 8 6 10 11 14 16 16 17 14 12 10 10 9 7 6 4 2 0 0 3 5 6 6 7 8 8 10 10 10 11
0 2 6 4 9 13 7 8 6 7 15 13 16 13 12 15 13 10 16 15 16 15 14 13 11 9 9 6 4 2 2 1 4 6 7 7 7 7 9 10 11 10 10 11
6 4 16 8 5 8 4 8 6 10 7 3 16 18 18 17 6 12 17 16 16 15 15 13 11 9 8 5 2 3 3 4 5 5 7 7 8 9 9 10 10 10 11 12
10 11 6 5 7 16 10 6 12 1 2 3 3 8 13 7 11 18 19 18 18 17 15 12 10 9 7 4 3 3 3 5 6 6 7 8 8 8 8 10 9 10 11 12
5 2 7 9 6 2 13 4 3 2 3 4 6 7 12 13 12 15 17 17 15 15 12 8 9 8 5 4 4 2 3 4 5 5 7 7 8 8 8 9 10 9 9 9
3 2 1 1 2 1 6 1 2 1 1 4 5 13 15 16 15 15 14 14 13 10 9 6 8 6 4 4 3 2 3 3 3 6 7 7 8 8 8 7 7 8 8 9
2 7 4 4 1 2 6 8 3 3 5 7 8 10 12 16 13 15 14 13 11 10 7 6 6 5 4 3 2 1 1 2 4 5 6 7 6 8 9 8 8 8 9 10
6 5 6 4 7 2 1 6 6 8 7 9 11 8 7 13 16 14 11 10 10 10 7 6 5 4 3 2 2 2 2 0 3 6 6 6 7 7 7 8 10 13 18 21
Wind_Direction
194 198 202 196 213 235 195 206 196 186 116 213 220 241 211 172 225 217 229 219 227 202 93 262 244 261 240 240 225 222 214 207 180 188 189 203 206 205 217 229 224 215 207 208
174 215 202 203 163 172 175 193 186 94 136 212 204 241 233 163 230 262 281 255 245 181 143 99 89 211 230 228 224 229 222 214 193 176 192 197 178 204 210 215 226 221 218 207
199 197 127 142 170 172 189 194 177 172 147 169 243 241 184 166 153 158 136 221 194 136 127 99 76 66 71 200 216 218 220 215 214 183 176 180 113 110 195 216 226 226 221 215
231 133 176 189 193 196 184 163 145 141 174 203 213 243 178 165 186 169 140 152 135 130 108 93 80 66 61 64 113 208 197 210 215 212 202 186 217 239 236 241 213 221 220 226
152 157 177 191 192 203 134 151 137 153 185 225 190 251 132 166 196 178 145 121 125 105 108 96 84 77 68 60 69 90 112 124 153 204 234 206 217 227 209 258 250 210 215 221
97 353 197 137 80 196 138 118 98 113 175 238 213 232 203 174 202 162 144 134 131 118 105 98 88 86 80 72 75 80 86 82 90 106 130 172 353 21 21 2 358 353 342 339
125 154 122 160 100 138 171 157 148 195 195 233 52 218 250 124 165 174 155 144 142 133 117 104 94 82 76 77 76 76 81 80 79 78 72 72 89 83 69 8 1 341 337 336
180 198 180 174 205 174 193 187 170 189 195 183 87 230 210 121 157 143 142 141 136 128 121 106 97 94 86 79 77 76 74 74 71 73 69 62 52 57 52 43 25 22 8 0
190 154 111 180 110 171 176 202 69 105 21 162 183 223 179 164 160 153 152 155 149 140 132 118 105 94 89 82 76 77 76 70 64 65 62 59 53 52 47 42 35 22 16 2
205 129 207 106 146 116 220 144 152 216 162 215 185 240 240 185 178 172 169 169 157 146 140 130 116 106 99 92 87 82 78 73 65 66 62 60 54 51 44 41 32 19 6 2
168 106 132 178 206 180 163 186 213 230 238 213 184 235 343 189 184 178 175 170 162 161 151 138 128 117 104 95 88 82 75 72 64 62 58 57 50 43 41 34 25 14 359 357
151 105 149 188 73 11 268 217 196 201 191 299 41 257 333 209 184 178 172 163 166 163 153 145 140 131 118 104 91 82 74 70 59 56 59 52 43 35 31 23 15 5 360 351
177 152 106 76 245 176 218 199 221 220 61 193 183 229 328 217 170 172 166 167 164 159 157 155 150 145 131 117 104 91 80 72 59 55 50 46 37 28 21 12 2 357 349 343
120 123 196 205 210 152 200 202 199 205 200 209 227 214 163 175 171 173 171 174 169 168 168 167 156 144 127 118 110 97 83 69 58 56 48 48 28 12 10 0 355 347 342 332
147 205 211 232 33 248 202 197 191 204 222 209 235 231 202 187 184 190 178 171 169 170 176 164 156 148 136 123 110 101 87 66 43 40 33 20 11 358 347 343 332 325 309 310
169 203 213 44 105 169 238 223 192 209 227 234 248 252 282 178 190 180 180 177 178 175 172 167 158 144 132 125 112 100 79 62 35 34 19 354 338 329 332 329 319 311 306 308
165 142 138 208 120 85 281 224 200 214 222 219 231 237 152 179 187 186 185 186 179 174 168 164 155 146 132 117 105 82 63 50 26 355 351 323 336 339 340 327 323 317 315 312
156 134 106 119 130 218 246 57 211 213 221 223 239 243 190 188 194 195 190 178 172 167 160 155 146 139 125 111 95 85 59 41 351 321 329 2 350 338 327 322 315 314 314 311
195 143 163 184 201 306 261 195 164 175 237 226 227 220 197 167 160 197 183 176 165 157 151 143 139 127 120 108 94 74 101 251 276 8 354 350 345 329 323 320 320 319 316 311
137 256 191 155 212 219 275 157 147 119 266 208 209 207 165 143 186 195 168 156 142 137 133 128 122 119 121 109 90 159 133 12 30 0 340 335 334 327 323 317 313 310 304 300
158 165 208 200 224 275 142 147 152 177 253 215 192 198 174 187 207 132 136 134 132 132 129 126 129 129 129 124 134 92 42 35 10 346 336 331 328 320 307 305 306 305 301 298
174 165 183 194 200 246 139 122 180 118 33 165 149 161 175 109 124 141 141 138 136 132 132 128 131 138 130 105 86 68 38 20 1 341 327 320 314 306 304 301 301 302 301 294
200 206 171 205 218 81 186 20 126 145 160 196 141 147 133 131 140 142 138 136 131 130 129 127 135 131 117 93 78 73 46 3 341 334 306 299 300 297 295 302 303 302 297 295
236 172 194 135 144 158 212 330 309 274 291 142 143 141 139 139 145 139 134 132 129 127 134 131 132 133 137 113 90 70 1 2 347 299 305 308 303 304 297 298 295 291 293 293
97 143 171 263 204 272 251 221 170 137 119 119 133 149 143 140 148 144 137 134 137 136 132 137 140 140 148 131 135 112 355 10 304 297 297 298 299 308 303 288 291 290 283 284
185 173 192 239 162 164 214 195 155 165 172 161 144 128 137 149 147 143 140 140 140 145 141 138 139 143 154 160 201 179 130 243 307 310 310 313 304 303 301 302 303 292 292 293